Regional Weather Roundup
Issued by NWS

Home | Current Version | Previous Version | Graphics & Text | Print | Product List | Glossary On
Versions: 1 2 3 4 5 6 7 8 9 10 11 12 13 14 15 16 17 18 19 20 21 22 23 24 25 26 27 28 29 30 31 32 33 34 35 36 37 38 39 40 41 42 43 44 45 46 47 48 49 50
000
ASUS43 KLOT 050301
RWRIL

ILLINOIS REGIONAL WEATHER ROUNDUP
NATIONAL WEATHER SERVICE CHICAGO/ROMEOVILLE IL
1000 PM CDT FRI SEP 04 2015

NOTE: "FAIR" INDICATES FEW OR NO CLOUDS BELOW 12,000 FEET WITH NO
SIGNIFICANT WEATHER AND/OR OBSTRUCTIONS TO VISIBILITY.

* THESE STATIONS ARE NOT UNDER NWS QUALITY CONTROL. THEY ALSO MAY NOT
  REPORT WEATHER SUCH AS PRECIPITATION OR FOG.

ILZ001-002-007-009-015-016-024-050400-
NORTHWEST ILLINOIS

CITY           SKY/WX    TMP DP  RH WIND       PRES   REMARKS
MOLINE         CLEAR     74  70  87 CALM      30.00R
STERLING*      CLEAR     77  73  88 SE5       30.00R
$$

ILZ003-004-008-010-011-017-018-050400-
NORTH CENTRAL ILLINOIS

CITY           SKY/WX    TMP DP  RH WIND       PRES   REMARKS
ROCKFORD       PTCLDY    74  67  78 E8        30.05R
$$

ILZ005-006-012>014-019>023-050400-
NORTHEAST ILLINOIS

CITY           SKY/WX    TMP DP  RH WIND       PRES   REMARKS
CHICAGO-OHARE  PTCLDY    72  67  84 E5        30.06R
CHICAGO-MIDWAY PTCLDY    74  66  76 E6        30.06R
AURORA         CLEAR     73  68  84 NE6       30.05R
WAUKEGAN       PTCLDY    66  66 100 CALM      30.06S
DUPAGE AIRPORT CLEAR     72  66  81 E5        30.06R
WHEELING       PTCLDY    70  67  90 SE5       30.07S
NORTHERLY ISL    N/A     71  67  87 E3          N/A
$$

LMZ740>746-050400-
SOUTHERN LAKE MICHIGAN

STATION/POSITION SKY/WX   TEMP    WIND        PRES    VSBY  WAVE
                          AIR SEA DIR/SP/G                  HT/PER
                          (F)     (DEG/KT/KT) (MB)    (MI)  (FT/S)
SOUTHERN BUOY              68 71   90/  4/  4 1017.7
WILMETTE HARBOR            71 71  250/  6/  8   N/A           1/ 3
HARRISON CRIB              71      80/  6/  6   N/A
BURNHAM HARBOR             71      30/  3/  6   N/A
CALUMET HARBOR             72      30/  4/  5   N/A
BURNS HARBOR               72      70/ 11/ 13 1017.9R
MICHIGAN CITY              71      90/  3/  4   N/A
MICHIGAN CITY 6N           72 74   80/  4/  6   N/A           1/ 4
ST. JOSEPH                 71 76   50/  4/  6   N/A           1
$$

ILZ025>027-034>036-040-047-049-050-058-095>099-050400-
WEST-CENTRAL ILLINOIS

CITY           SKY/WX    TMP DP  RH WIND       PRES   REMARKS
QUINCY         CLEAR     79  69  71 S5        30.02R HX  81
$$

ILZ028>032-037-038-041>044-048-051>054-059>061-050400-
CENTRAL ILLINOIS

CITY           SKY/WX    TMP DP  RH WIND       PRES   REMARKS
DECATUR        PTCLDY    76  67  73 E15       30.08R
PEORIA         CLEAR     81  71  71 CALM      30.02R HX  85
SPRINGFIELD    CLEAR     78  69  73 CALM      30.03R HX  80
TAYLORVILLE    NOT AVBL
$$

ILZ033-039-045-046-055>057-062-063-050400-
EAST-CENTRAL ILLINOIS

CITY           SKY/WX    TMP DP  RH WIND       PRES   REMARKS
CHAMPAIGN      CLOUDY    70  67  90 SE9G18    30.08S
MATTOON        CLOUDY    75  64  68 N23G33    30.13R
$$

ILZ079-100>102-050400-
SOUTHWEST ILLINOIS

CITY           SKY/WX    TMP DP  RH WIND       PRES   REMARKS
ALTON          CLEAR     73  70  88 CALM      30.03R
BELLEVILLE     CLEAR     76  76  98 CALM      30.02R
CAHOKIA*       CLEAR     79  71  76 S3        30.02R HX  82
$$

ILZ064>066-069>071-074>076-080>082-084>086-088>090-092>094-050400-
SOUTH-CENTRAL ILLINOIS

CITY           SKY/WX    TMP DP  RH WIND       PRES   REMARKS
CARBONDALE     CLEAR     73  70  90 CALM      30.04R
MT. VERNON     CLEAR     72  66  83 CALM      30.05R
$$

ILZ067-068-072-073-078-083-087-091-050400-
SOUTHEAST ILLINOIS

CITY           SKY/WX    TMP DP  RH WIND       PRES   REMARKS
LAWRENCEVILLE  CLEAR     76  71  85 E5        30.06R
$$

ABBREVIATIONS USED IN REMARKS
   TC - TEMPERATURE IN CELSIUS
  WCI - WIND CHILL INDEX
   HX - HEAT INDEX
  VSB - VISIBILITY
$$



USA.gov is the U.S. government's official web portal to all federal, state and local government web resources and services.